Das Wetter in  D-61279 Heinzenberg / Taunus





Wetter Minimum- & Maximum-Werte im Mrz 2008

Standort: Heinzenberg / Taunus - Höhe 297 m         8 24' 1" Ost 50 21' 51" Nord
(   3-stündige Aktualisierung    letzte Aktualisierung um 19:04 am 31.03.2008  )


Messgrösse

Minimum

Maximum

Durchschnitt

Temperatur West /
Luftfeuchte West
Anklicken für Monats-Diagramm

-7,5 C

06:28
24.03.2008

27 %

14:53
30.03.2008

20,6 C

16:38
30.03.2008

95 %

09:46
27.03.2008

Temp

4,5 C

Feuchte

79 %

Temperatur Ost /
Luftfeuchte Ost
Anklicken für Monats-Diagramm

-7,5 C

06:23
24.03.2008

--

--
--

20,1 C

17:48
30.03.2008

--

--
--

4,4 C

--

Luftdruck Anklicken für Monats-Diagramm

979,1 hPa

14:55
21.03.2008

1032,1 hPa

23:40
05.03.2008

1007,2 hPa

Taupunkt

-9,1 C

06:28
24.03.2008

8,9 C

13:54
15.03.2008

1,1 C

Windchill
( gefühlte Temperatur )

-16,0 C

17:39
25.03.2008

17,9 C

16:33
30.03.2008

-0,4 C

Windgeschwindigkeit /
Windrichtung
Anklicken für Monats-Diagramm

---

74,8 km/h / W

06:56
01.03.2008

14,7 km/h
W

Helligkeit /
Sonnenschein
Anklicken für Monats-Diagramm
Anklicken für Monats-Diagramm

Sonnenschein:

77:31 Stunden

Max: 7:40 Std am
05.03.2008

108,0 klux

12:34
25.03.2008

21 klux

Solarstrahlung Anklicken für Monats-Diagramm

---

739 W/m

12:34
25.03.2008

153 W/m

Regenmenge
    Mrz 2008
Anklicken für Monats-Diagramm

Insgesamt 28,4 l/m

in 139:44 Stunden
an 24 Tagen

4,1 l/m

02:30
16.03.2008

Gesamtmenge

28,4 l/m

Regen-Tage
    Mrz 2008
Anklicken für Monats-Diagramm

>   0 mm/Tag

>   2 mm/Tag

>   5 mm/Tag

> 10 mm/Tag

> 20 mm/Tag

24 Tage     
4 Tage     
0 Tage     
0 Tage     
0 Tage     

Eisige Tage Mrz 2008 / 2007

Tmin ≤ -10C     

0 Tage

/

0 Tage

Eistage Mrz 2008 / 2007

Tmax <     0C     

0 Tage

/

0 Tage

Frosttage Mrz 2008 / 2007

Tmin ≤     0C     

13 Tage

/

10 Tage

Kalte Tage Mrz 2008 / 2007

Tmax <   10C     

20 Tage

/

9 Tage

Warme Tage Mrz 2008 / 2007

Tmax ≥   20C     

  1 Tag

/

0 Tage

Sommertage Mrz 2008 / 2007

Tmax ≥   25C     

0 Tage

/

0 Tage

Heisse Tage Mrz 2008 / 2007

Tmax ≥   30C     

0 Tage

/

0 Tage


Monatsdiagramm Mrz 2008

Die Kurven zeigen den Durchschnittswert des jeweiligen Tages an


Wetter-Monatsübersicht Mrz 2008
Datum
  Temperatur
   Luftdruck
   Wind
  Regen
   Luftfeuchte
   Helligkeit

Sonnen-
schein


Temp.

Min.
Temp.

Max.
Temp.


Luftdruck

Min.
Luftdruck

Max.
Luftdruck

-Geschw.
Haupt-Richtg.

Max.
Wind

Menge /
Dauer


Feuchte

Min.
Feuchte

Max.
Feuchte


Helligkeit

Max.
Helligkeit

1.
Mrz
7,2 C2,6 C
07:31
9,6 C
06:46
1002,1 hPa990,0 hPa
06:46
1011,3 hPa
22:16
40,5 km/h
W
74,8 km/h
06:56  
2,9 l/m
9:56 Stunden
81 %61 %
15:56
93 %
07:56
12,7 klux44,6 klux
15:11
1:00 Std 
2.
Mrz
9,2 C5,5 C
03:57
13,6 C
15:42
1007,4 hPa1004,8 hPa
07:22
1009,7 hPa
23:48
31,1 km/h
W
51,4 km/h
13:47  
0,9 l/m
5:25 Stunden
79 %63 %
15:47
93 %
06:17
15,3 klux70,6 klux
13:32
1:15 Std 
3.
Mrz
5,4 C0,0 C
22:33
9,2 C
00:03
1010,0 hPa1007,9 hPa
14:48
1014,0 hPa
22:33
16,2 km/h
W
38,8 km/h
14:58  
0,3 l/m
5:30 Stunden
79 %66 %
16:33
91 %
08:18
12,3 klux32,2 klux
13:08
15 Min 
4.
Mrz
0,9 C-1,4 C
02:23
5,2 C
16:03
1016,3 hPa1013,0 hPa
00:03
1022,4 hPa
22:13
1,6 km/h
NW
19,3 km/h
22:33  
1,5 l/m
6:40 Stunden
84 %72 %
00:03
92 %
11:58
14,8 klux48,0 klux
14:23
1:15 Std 
5.
Mrz
0,3 C-3,4 C
23:50
6,2 C
15:24
1028,9 hPa1022,3 hPa
00:04
1032,1 hPa
23:40
6,0 km/h
NW
24,5 km/h
14:24  
---
72 %49 %
16:34
86 %
00:19
32,5 klux87,7 klux
12:39
7:40 Std 
6.
Mrz
1,3 C-3,9 C
01:20
5,4 C
15:45
1025,8 hPa1021,8 hPa
22:26
1031,1 hPa
01:20
6,0 km/h
W-SW
28,0 km/h
07:55  
---
73 %66 %
11:10
80 %
02:00
11,7 klux28,9 klux
13:00
--- 
7.
Mrz
5,2 C2,9 C
06:41
8,2 C
13:46
1016,4 hPa1013,0 hPa
16:51
1021,9 hPa
00:06
0,6 km/h
W-NW
12,8 km/h
22:32  
0,2 l/m
2:11 Stunden
83 %77 %
00:01
89 %
23:07
10,9 klux37,7 klux
11:41
--- 
8.
Mrz
6,1 C3,1 C
23:13
12,5 C
14:52
1011,9 hPa1009,3 hPa
15:07
1013,6 hPa
08:42
6,2 km/h
W-SW
26,0 km/h
16:27  
0,3 l/m
3:35 Stunden
77 %47 %
15:22
93 %
09:32
29,7 klux77,5 klux
11:47
5:15 Std 
9.
Mrz
6,3 C3,1 C
01:43
8,9 C
15:58
1005,5 hPa1002,6 hPa
17:08
1010,4 hPa
00:13
10,9 km/h
SW
28,5 km/h
13:58  
---
73 %64 %
16:43
82 %
03:23
11,7 klux37,4 klux
15:38
15 Min 
10.
Mrz
7,3 C4,8 C
07:39
10,7 C
15:04
994,4 hPa987,3 hPa
23:25
1002,8 hPa
02:04
23,4 km/h
SW
49,3 km/h
17:19  
0,3 l/m
7:31 Stunden
74 %55 %
15:29
87 %
20:59
21,8 klux75,6 klux
12:09
2:30 Std 
11.
Mrz
7,0 C5,7 C
18:55
8,9 C
23:56
992,7 hPa987,2 hPa
01:55
997,5 hPa
15:25
32,0 km/h
W-SW
53,1 km/h
02:45  
1,7 l/m
11:36 Stunden
80 %68 %
16:20
93 %
23:36
13,0 klux72,4 klux
12:05
25 Min 
12.
Mrz
7,2 C4,3 C
19:51
10,5 C
01:01
998,7 hPa991,1 hPa
00:11
1010,3 hPa
23:52
35,3 km/h
W
68,3 km/h
12:41  
2,0 l/m
8:00 Stunden
78 %53 %
12:56
93 %
00:11
15,7 klux81,0 klux
12:46
1:00 Std 
13.
Mrz
6,0 C3,8 C
07:27
9,3 C
14:27
1013,1 hPa1010,3 hPa
00:02
1015,3 hPa
20:47
27,3 km/h
W
45,2 km/h
11:07  
0,3 l/m
3:10 Stunden
76 %65 %
14:47
88 %
08:57
25,7 klux82,6 klux
11:32
3:25 Std 
14.
Mrz
6,9 C1,9 C
23:59
11,4 C
14:48
1011,4 hPa1006,7 hPa
08:33
1016,9 hPa
23:59
14,5 km/h
W-NW
39,6 km/h
15:13  
1,1 l/m
8:35 Stunden
83 %65 %
15:48
94 %
07:43
15,0 klux66,3 klux
14:13
1:00 Std 
15.
Mrz
6,2 C-1,2 C
05:49
15,5 C
14:59
1011,2 hPa1002,8 hPa
23:30
1017,2 hPa
03:54
2,4 km/h
W-SW
19,6 km/h
16:04  
---
82 %63 %
14:44
92 %
08:04
27,4 klux73,1 klux
12:04
4:51 Std 
16.
Mrz
8,3 C5,8 C
00:20
10,6 C
11:30
1001,3 hPa1000,3 hPa
15:25
1002,9 hPa
00:20
12,5 km/h
W-SW
34,4 km/h
11:40  
4,1 l/m
10:16 Stunden
88 %76 %
11:40
93 %
22:46
13,9 klux100,0 klux
11:15
25 Min 
17.
Mrz
4,3 C1,1 C
23:37
7,2 C
00:01
1009,7 hPa1002,7 hPa
00:01
1012,8 hPa
23:37
13,1 km/h
NW
32,0 km/h
15:51  
0,5 l/m
4:25 Stunden
82 %65 %
13:31
94 %
00:21
13 klux81 klux
10:21
10 Min 
18.
Mrz
2,5 C-1,1 C
05:57
7,8 C
15:12
1013,7 hPa1011,8 hPa
00:42
1014,9 hPa
09:27
16,3 km/h
W-NW
40,2 km/h
13:27  
---
20 Minuten
75 %52 %
14:27
88 %
02:57
35,6 klux90,2 klux
12:07
7:05 Std 
19.
Mrz
2,3 C-0,8 C
23:54
7,9 C
16:03
1014,3 hPa1012,8 hPa
08:33
1018,3 hPa
23:54
11,8 km/h
W-NW
33,7 km/h
14:38  
0,5 l/m
2:40 Stunden
81 %60 %
15:08
92 %
04:37
29,8 klux93,5 klux
11:48
4:45 Std 
20.
Mrz
1,9 C-0,8 C
00:04
5,1 C
13:04
1012,1 hPa996,2 hPa
23:50
1018,3 hPa
00:04
19,0 km/h
W
39,3 km/h
20:39  
1,2 l/m
9:06 Stunden
87 %73 %
13:09
92 %
22:45
18,1 klux48,1 klux
11:49
30 Min 
21.
Mrz
2,4 C-0,2 C
22:00
5,8 C
14:55
983,7 hPa979,1 hPa
14:55
996,2 hPa
00:00
22,8 km/h
W-SW
46,7 km/h
01:05  
4,1 l/m
13:16 Stunden
88 %70 %
16:10
93 %
01:35
20,9 klux90,4 klux
12:35
2:10 Std 
22.
Mrz
1,3 C-0,5 C
04:26
8,0 C
13:56
988,5 hPa982,8 hPa
00:01
996,4 hPa
23:37
1,2 km/h
SW
14,5 km/h
14:06  
2,6 l/m
8:26 Stunden
90 %75 %
14:06
93 %
09:56
18,3 klux88,2 klux
13:46
1:50 Std 
23.
Mrz
-1,8 C-5,9 C
23:58
0,7 C
17:17
999,3 hPa996,4 hPa
00:02
1000,9 hPa
09:27
1,9 km/h
N
10,1 km/h
15:07  
0,8 l/m
45 Minuten
85 %72 %
17:07
92 %
00:02
14,9 klux45,1 klux
16:02
1:55 Std 
24.
Mrz
-2,5 C-7,5 C
06:28
2,3 C
16:33
996,4 hPa994,1 hPa
16:23
999,3 hPa
00:43
7,8 km/h
W
31,9 km/h
13:43  
0,2 l/m
55 Minuten
85 %66 %
12:13
91 %
23:29
25,2 klux66,1 klux
16:18
3:30 Std 
25.
Mrz
-0,5 C-2,6 C
23:45
3,4 C
14:39
1001,7 hPa996,6 hPa
00:04
1006,1 hPa
23:45
20,5 km/h
W
46,4 km/h
17:24  
1,4 l/m
1:30 Stunden
87 %67 %
14:59
92 %
05:24
29,0 klux108,0 klux
12:34
4:15 Std 
26.
Mrz
0,7 C-2,7 C
01:25
3,5 C
15:05
1002,8 hPa1000,1 hPa
17:51
1006,1 hPa
01:25
7,8 km/h
W-SW
24,8 km/h
00:00  
1,2 l/m
11:00 Stunden
89 %83 %
01:00
93 %
21:30
12 klux37 klux
14:45
40 Min 
27.
Mrz
3,4 C0,3 C
02:51
6,8 C
13:06
1001,5 hPa999,7 hPa
13:06
1006,3 hPa
22:56
2,9 km/h
O-SO
20,7 km/h
10:56  
---
91 %85 %
17:06
95 %
09:46
12,2 klux53,6 klux
10:41
1:10 Std 
28.
Mrz
6,2 C2,1 C
04:06
11,4 C
15:36
1009,0 hPa1006,3 hPa
00:16
1012,3 hPa
10:06
13,9 km/h
SW
42,8 km/h
22:01  
0,2 l/m
2:21 Stunden
75 %57 %
20:26
91 %
06:01
33,1 klux96,0 klux
12:16
5:00 Std 
29.
Mrz
7,5 C3,1 C
22:53
13,1 C
14:52
1015,9 hPa1007,0 hPa
00:37
1019,2 hPa
10:42
22,0 km/h
W
49,2 km/h
12:32  
0,5 l/m
2:35 Stunden
69 %47 %
16:27
90 %
02:22
37,8 klux100,0 klux
11:27
6:15 Std 
30.
Mrz
11,6 C3,1 C
00:08
20,6 C
16:38
1010,0 hPa1005,2 hPa
16:38
1016,7 hPa
00:08
17,4 km/h
O-SO
45,9 km/h
15:33  
---
53 %27 %
14:53
76 %
00:18
38 klux81 klux
12:08
7:00 Std 
31.
Mrz
10,3 C6,2 C
23:55
14,6 C
00:04
1015,9 hPa1008,0 hPa
00:04
1022,5 hPa
23:55
9,9 km/h
W
28,3 km/h
03:49  
---
68 %55 %
00:04
77 %
07:04
21,1 klux97,0 klux
14:54
45 Min 



Mrz
2008

Temperatur

  

Luftdruck

  

Wind

  

Regen

  

Luftfeuchte

  

Helligkeit

Sonnen-
schein

Min

Max

Min

Max

Max

Max

Min

Max

Max

Max

4,5 C

-7,5 C

06:28 Uhr
24.03.2008

20,6 C

16:38 Uhr
30.03.2008

1007,2 hPa

979,1 hPa

14:55 Uhr
21.03.2008

1032,1 hPa

23:40 Uhr
05.03.2008

14,7 km/h

W

74,8 km/h

06:56 Uhr
01.03.2008

4,1 l/m

10:16 Stunden
16.03.2008

79 %

27 %

14:53 Uhr
30.03.2008

95 %

09:46 Uhr
27.03.2008

20,8 klux

108,0 klux

12:34 Uhr
25.03.2008

7:40 Std

am
05.03.2008

Gesamt

Gesamt

28,4 l/m

24 Tage
139:44 h

77:31 Std


Wetter-Diagramme Mrz 2008     Heinzenberg / Taunus   
TemperaturLuftfeuchte
SolarstrahlungLuftdruck
HelligkeitSonnenschein
RegenmengeRegendauer
Wind-GeschwindigkeitWind-Richtung